Regional Weather Roundup
Issued by NWS

Home | Current Version | Previous Version | Text Only | Print | Product List | Glossary On
Versions: 1 2 3 4 5 6 7 8 9 10 11 12 13 14 15 16 17 18 19 20 21 22 23 24 25 26 27 28 29 30 31 32 33 34 35 36 37 38 39 40 41 42 43 44 45 46 47 48 49 50
000
ASUS43 KFSD 261910
RWRSD

WEATHER ROUNDUP FOR SOUTH DAKOTA
NATIONAL WEATHER SERVICE SIOUX FALLS SD
200 PM CDT SAT JUL 26 2014

NOTE: "FAIR" INDICATES FEW OR NO CLOUDS BELOW 12,000 FEET WITH NO
SIGNIFICANT WEATHER AND/OR OBSTRUCTIONS TO VISIBILITY.


SDZ001>005-009-010-012>017-262000-
NORTHWEST AND NORTH CENTRAL SOUTH DAKOTA

CITY           SKY/WX    TMP DP  RH WIND       PRES   REMARKS
BUFFALO          N/A     76  45  33 W26G36    30.00F
FAITH            N/A     81  44  27 NW20G32   30.02R
MOBRIDGE       SUNNY     83  48  29 NW25G33   29.90F
$$

SDZ012>016-024>037-041>051-057-063-072>074-262000-
SOUTHWEST AND SOUTH CENTRAL SOUTH DAKOTA

CITY           SKY/WX    TMP DP  RH WIND       PRES   REMARKS
RAPID CTY ARPT SUNNY     80  47  31 N18G29    30.07S
PIERRE         SUNNY     83  50  31 NW15      29.96S
CUSTER         SUNNY     80  31  16 W12G23    30.19S
ELLSWORTH AFB  SUNNY     80  43  27 N23G29    30.06F
PHILIP         SUNNY     86  46  24 NW16G22   30.01S
PINE RIDGE     SUNNY     80  47  31 N13       30.09S
WINNER         FAIR      80  66  62 NW7       29.99S
$$

SDZ004>011-016>023-039-040-262000-
NORTHEAST SOUTH DAKOTA

CITY           SKY/WX    TMP DP  RH WIND       PRES   REMARKS
ABERDEEN       SUNNY     84  49  29 W18G24    29.88F
WATERTOWN      MOSUNNY   80  67  64 W18       29.89S
SISSETON         N/A     83  61  47 NW17G25   29.83S
$$

SDZ017-020-022-023-036>040-048>070-262000-
SOUTHEAST SOUTH DAKOTA

CITY           SKY/WX    TMP DP  RH WIND       PRES   REMARKS
SIOUX FALLS    CLOUDY    78  64  61 S10       29.90R
HURON          MOSUNNY   79  63  57 SW9       29.92S
CHAMBERLAIN    MOSUNNY   80  63  55 NW10      29.96S
MITCHELL       PTSUNNY   80  65  59 W6        29.94R
YANKTON        PTSUNNY   75  68  78 E7        29.90S
$$

ABBREVIATIONS USED IN REMARKS
   TC - TEMPERATURE IN CELSIUS
  WCI - WIND CHILL INDEX
   HX - HEAT INDEX
  VSB - VISIBILITY



USA.gov is the U.S. government's official web portal to all federal, state and local government web resources and services.